CW3065 Weather Reports


Display with metric or nautical units.
time (UTC)temp
F
wind
direction
speed
MPH
gust
MPH
rain 1hr
in
rain 24hr
in
rain mn
in
humidity
%
barometer
mb
20260503021504 51 245 2.0 3.0 0.00 0.00 0.00 32 1012.1
20260503021003 52 119 3.0 5.0 0.00 0.00 0.00 32 1011.9
20260503020503 52 119 2.0 3.0 0.00 0.00 0.00 31 1011.8
20260503020004 52 119 2.0 3.0 0.00 0.00 0.00 30 1011.7
20260503015504 53 119 1.0 3.0 0.00 0.00 0.00 31 1011.6
20260503015004 53 119 3.0 3.0 0.00 0.00 0.00 29 1011.6
20260503014504 53 183 2.0 6.0 0.00 0.00 0.00 29 1011.6
20260503014004 54 206 6.0 13.0 0.00 0.00 0.00 28 1011.8
20260503013004 54 178 11.0 13.0 0.00 0.00 0.00 27 1012.0
20260503012503 54 176 3.0 5.0 0.00 0.00 0.00 28 1012.0
20260503012004 54 259 3.0 8.0 0.00 0.00 0.00 27 1012.1
20260503011504 54 269 5.0 13.0 0.00 0.00 0.00 26 1012.2
20260503011004 54 262 5.0 10.0 0.00 0.00 0.00 26 1012.2
20260503010504 55 251 5.0 8.0 0.00 0.00 0.00 26 1012.3
20260503010004 55 215 5.0 7.0 0.00 0.00 0.00 21 1012.4
20260503005004 55 154 3.0 6.0 0.00 0.00 0.00 21 1012.1
20260503004004 55 113 5.0 9.0 0.00 0.00 0.00 19 1011.8
20260503003504 55 102 5.0 7.0 0.00 0.00 0.00 20 1011.9
20260503003004 55 130 5.0 12.0 0.00 0.00 0.00 19 1011.9
20260503002504 56 126 7.0 12.0 0.00 0.00 0.00 19 1011.9
20260503002003 56 119 7.0 12.0 0.00 0.00 0.00 19 1011.9
20260503001504 57 117 5.0 10.0 0.00 0.00 0.00 19 1011.9
20260503001004 57 126 7.0 12.0 0.00 0.00 0.00 20 1011.9
20260503000504 57 112 7.0 12.0 0.00 0.00 0.00 19 1011.9
20260503000003 57 69 5.0 10.0 0.00 0.00 0.00 19 1011.9
20260502235504 57 103 6.0 14.0 0.00 0.00 0.00 19 1011.9
20260502235003 57 112 7.0 14.0 0.00 0.00 0.00 19 1011.8
20260502234504 57 109 9.0 12.0 0.00 0.00 0.00 19 1011.8
20260502234003 57 78 4.0 10.0 0.00 0.00 0.00 19 1011.8
20260502233503 57 56 6.0 14.0 0.00 0.00 0.00 20 1011.8
20260502233003 58 55 9.0 14.0 0.00 0.00 0.00 18 1011.8
20260502231504 58 78 7.0 13.0 0.00 0.00 0.00 19 1011.7
20260502230504 58 52 7.0 12.0 0.00 0.00 0.00 20 1011.7
20260502230004 58 75 7.0 12.0 0.00 0.00 0.00 19 1011.7
20260502225503 59 72 10.0 15.0 0.00 0.00 0.00 18 1011.8
20260502225004 60 93 7.0 14.0 0.00 0.00 0.00 19 1011.7
20260502224504 60 71 8.0 15.0 0.00 0.00 0.00 18 1011.8
20260502224003 60 73 13.0 18.0 0.00 0.00 0.00 19 1011.9
20260502223503 59 57 10.0 15.0 0.00 0.00 0.00 20 1012.3
20260502223004 58 33 7.0 16.0 0.00 0.00 0.00 21 1012.3
20260502222503 58 74 8.0 14.0 0.00 0.00 0.00 20 1012.3
20260502222003 58 108 5.0 8.0 0.00 0.00 0.00 20 1012.4
20260502221003 59 31 5.0 9.0 0.00 0.00 0.00 20 1012.3
20260502220504 59 104 5.0 10.0 0.00 0.00 0.00 20 1012.1
20260502220004 60 98 5.0 14.0 0.00 0.00 0.00 19 1011.9
20260502215503 60 175 8.0 17.0 0.00 0.00 0.00 20 1012.1
20260502214503 61 138 14.0 16.0 0.00 0.00 0.00 19 1012.5
20260502214004 61 147 12.0 16.0 0.00 0.00 0.00 20 1012.7
20260502213503 61 180 7.0 12.0 0.00 0.00 0.00 19 1012.9
20260502213004 61 167 9.0 13.0 0.00 0.00 0.00 19 1012.9
20260502212003 61 176 10.0 16.0 0.00 0.00 0.00 20 1012.9
20260502211503 61 159 10.0 15.0 0.00 0.00 0.00 19 1013.0
20260502211004 61 112 9.0 15.0 0.00 0.00 0.00 19 1012.9
20260502205503 61 205 10.0 17.0 0.00 0.00 0.00 18 1013.1
20260502205004 61 145 11.0 16.0 0.00 0.00 0.00 20 1013.1
20260502204503 61 133 10.0 15.0 0.00 0.00 0.00 20 1013.2
20260502204004 61 144 10.0 14.0 0.00 0.00 0.00 19 1013.2
20260502203504 61 131 9.0 15.0 0.00 0.00 0.00 21 1013.3
20260502203004 61 123 10.0 15.0 0.00 0.00 0.00 20 1013.3
20260502202503 61 128 11.0 16.0 0.00 0.00 0.00 20 1013.3
20260502201504 62 86 8.0 14.0 0.00 0.00 0.00 20 1013.4
20260502201004 61 66 6.0 10.0 0.00 0.00 0.00 19 1013.6
20260502200504 61 71 7.0 15.0 0.00 0.00 0.00 18 1013.6
20260502195503 60 159 2.0 6.0 0.00 0.00 0.00 18 1013.8
20260502195003 60 168 5.0 13.0 0.00 0.00 0.00 18 1014.2
20260502194504 61 141 5.0 8.0 0.00 0.00 0.00 19 1014.2
20260502194003 61 177 5.0 12.0 0.00 0.00 0.00 19 1014.3
20260502193504 61 107 6.0 12.0 0.00 0.00 0.00 19 1014.2
20260502193003 61 119 10.0 16.0 0.00 0.00 0.00 19 1014.2
20260502192504 61 134 4.0 14.0 0.00 0.00 0.00 19 1014.2
20260502191503 62 112 7.0 15.0 0.00 0.00 0.00 18 1014.3
20260502191004 62 45 7.0 13.0 0.00 0.00 0.00 20 1014.5
20260502190504 62 349 5.0 12.0 0.00 0.00 0.00 16 1014.8
20260502190004 62 81 3.0 6.0 0.00 0.00 0.00 14 1014.9
20260502185503 62 31 8.0 13.0 0.00 0.00 0.00 15 1014.9
20260502185003 61 36 5.0 9.0 0.00 0.00 0.00 14 1015.0
20260502184003 62 65 1.0 7.0 0.00 0.00 0.00 12 1015.1
20260502183504 62 342 3.0 7.0 0.00 0.00 0.00 15 1015.1
20260502182504 59 347 5.0 7.0 0.00 0.00 0.00 11 1015.3
20260502182003 59 328 1.0 5.0 0.00 0.00 0.00 14 1015.4
20260502180503 60 122 3.0 9.0 0.00 0.00 0.00 14 1015.5
20260502170504 56 89 2.0 6.0 0.00 0.02 0.00 21 1016.3
20260502164003 53 228 3.0 8.0 0.00 0.03 0.00 21 1017.3
20260502163504 53 166 2.0 7.0 0.00 0.03 0.00 21 1017.3
20260502162003 53 129 2.0 9.0 0.00 0.04 0.00 23 1017.3
20260502161503 53 155 3.0 6.0 0.00 0.04 0.00 23 1017.4
20260502161004 53 137 5.0 9.0 0.00 0.04 0.00 22 1017.3
20260502160504 52 137 5.0 12.0 0.00 0.04 0.00 24 1017.3
20260502152004 49 177 2.0 3.0 0.00 0.07 0.00 31 1017.3
20260502151503 48 130 1.0 2.0 0.00 0.07 0.00 35 1017.2
20260502150504 46 86 1.0 3.0 0.00 0.08 0.00 37 1017.4
20260502130504 29 27 0.0 0.0 0.00 0.10 0.00 75 1019.0
20260502123504 23 27 0.0 1.0 0.00 0.10 0.00 86 1018.6
20260502123004 23 27 1.0 3.0 0.00 0.10 0.00 86 1018.7
20260502122503 22 27 0.0 2.0 0.00 0.10 0.00 83 1018.7
20260502122003 22 27 1.0 2.0 0.00 0.10 0.00 83 1018.6
20260502121504 22 27 1.0 2.0 0.00 0.10 0.00 83 1018.7
20260502120504 22 325 0.0 0.0 0.00 0.10 0.00 82 1018.7
20260502115504 22 325 2.0 5.0 0.00 0.10 0.00 82 1018.6
20260502114504 22 325 0.0 0.0 0.00 0.10 0.00 81 1018.6
20260502114004 23 325 0.0 0.0 0.00 0.10 0.00 81 1018.7
20260502113503 23 325 2.0 5.0 0.00 0.10 0.00 81 1018.7
20260502113004 23 325 0.0 3.0 0.00 0.10 0.00 81 1018.6
20260502112503 23 325 1.0 3.0 0.00 0.10 0.00 81 1018.7
20260502112003 23 325 2.0 3.0 0.00 0.10 0.00 81 1018.7
20260502111004 23 325 1.0 6.0 0.00 0.10 0.00 81 1018.7
20260502110504 23 325 2.0 5.0 0.00 0.10 0.00 82 1018.7
20260502110004 23 325 0.0 0.0 0.00 0.10 0.00 81 1018.7
20260502105504 23 325 0.0 3.0 0.00 0.10 0.00 81 1018.7
20260502105004 23 325 0.0 3.0 0.00 0.10 0.00 81 1018.8
20260502104003 23 325 1.0 2.0 0.00 0.10 0.00 81 1018.8
20260502103504 23 325 0.0 0.0 0.00 0.10 0.00 81 1018.8
20260502103003 23 325 0.0 3.0 0.00 0.10 0.00 81 1018.8
20260502102504 23 325 3.0 3.0 0.00 0.10 0.00 81 1018.8
20260502102003 23 325 0.0 0.0 0.00 0.10 0.00 81 1018.6
20260502101503 23 325 1.0 3.0 0.00 0.10 0.00 80 1018.6
20260502101004 24 325 0.0 1.0 0.00 0.10 0.00 80 1018.6
20260502100504 24 325 1.0 3.0 0.00 0.10 0.00 80 1018.6
20260502091504 25 325 0.0 0.0 0.00 0.10 0.00 79 1018.5
20260502091003 25 325 0.0 0.0 0.00 0.10 0.00 79 1018.5
20260502090504 25 325 0.0 0.0 0.00 0.10 0.00 78 1018.5
20260502071503 28 325 0.0 3.0 0.00 0.10 0.00 70 1019.1
20260502071004 28 325 2.0 3.0 0.00 0.10 0.00 70 1019.1
20260502070504 28 325 1.0 2.0 0.00 0.10 0.00 70 1019.1
20260502070004 29 325 0.0 0.0 0.00 0.10 0.00 69 1019.1
20260502065503 29 325 0.0 0.0 0.00 0.10 0.00 69 1019.1
20260502065003 29 325 0.0 0.0 0.00 0.10 0.00 68 1019.1
20260502064504 29 325 0.0 1.0 0.00 0.10 0.00 67 1019.1
20260502064004 30 325 2.0 3.0 0.00 0.10 0.00 66 1019.1
20260502063504 30 325 1.0 3.0 0.00 0.10 0.00 66 1019.2
20260502063003 30 282 0.0 0.0 0.00 0.10 0.00 65 1019.2
20260502062504 31 282 0.0 0.0 0.00 0.10 0.00 64 1019.2
20260502061504 31 282 0.0 2.0 0.00 0.10 0.00 64 1019.1
20260502061004 32 282 2.0 3.0 0.00 0.10 0.00 63 1019.1
20260502060503 32 282 2.0 2.0 0.00 0.10 0.00 62 1019.1
20260502060004 32 282 2.0 3.0 0.00 0.10 0.00 61 1019.1
20260502055503 32 327 2.0 3.0 0.00 0.10 0.10 60 1019.1
20260502054504 33 327 2.0 3.0 0.00 0.10 0.10 60 1019.1
20260502054004 34 327 2.0 5.0 0.00 0.10 0.10 59 1018.9
20260502053003 34 230 0.0 3.0 0.00 0.10 0.10 58 1018.9
20260502052503 34 230 3.0 5.0 0.00 0.10 0.10 59 1018.9
20260502052003 34 243 4.0 6.0 0.00 0.10 0.10 58 1018.9
20260502051503 34 267 2.0 5.0 0.00 0.10 0.10 58 1019.0
20260502051004 34 267 2.0 3.0 0.00 0.10 0.10 59 1018.9
20260502050504 34 267 3.0 3.0 0.00 0.10 0.10 59 1018.9
20260502050003 34 267 0.0 2.0 0.00 0.10 0.10 57 1019.0
20260502045504 35 267 1.0 3.0 0.00 0.10 0.10 57 1019.0
20260502045004 35 267 2.0 3.0 0.00 0.10 0.10 56 1019.1
20260502044003 34 267 1.0 2.0 0.00 0.10 0.10 55 1019.1
20260502043504 34 267 2.0 3.0 0.00 0.10 0.10 55 1019.0
20260502042503 34 48 2.0 3.0 0.00 0.10 0.10 56 1019.0
20260502042003 35 48 0.0 2.0 0.00 0.10 0.10 54 1018.9
20260502041504 35 48 2.0 3.0 0.00 0.10 0.10 52 1018.9
20260502041004 36 48 0.0 0.0 0.00 0.10 0.10 52 1018.8
20260502040504 36 48 0.0 2.0 0.00 0.10 0.10 52 1018.7
20260502040004 36 48 1.0 3.0 0.00 0.10 0.10 52 1018.6
20260502035504 37 48 1.0 3.0 0.00 0.10 0.10 50 1018.7
20260502034504 38 287 2.0 3.0 0.00 0.10 0.10 48 1019.1
20260502034003 38 333 1.0 2.0 0.00 0.10 0.10 48 1019.1
20260502033503 38 333 0.0 2.0 0.00 0.10 0.10 44 1019.0
20260502033004 39 347 2.0 3.0 0.00 0.10 0.10 44 1018.8
20260502032503 39 356 0.0 1.0 0.00 0.10 0.10 44 1018.5
20260502032004 39 356 0.0 1.0 0.00 0.10 0.10 43 1018.1
20260502031503 40 356 1.0 2.0 0.00 0.10 0.10 45 1017.9
20260502031003 40 356 0.0 3.0 0.00 0.10 0.10 44 1017.9
20260502030503 40 356 3.0 3.0 0.00 0.10 0.10 41 1017.9
20260502030003 41 348 2.0 3.0 0.00 0.10 0.10 42 1017.9
20260502025003 41 54 1.0 3.0 0.00 0.10 0.10 40 1018.3
20260502024503 42 340 1.0 2.0 0.00 0.10 0.10 39 1018.3
20260502024004 42 340 1.0 2.0 0.00 0.10 0.10 38 1018.1
20260502023504 43 340 2.0 3.0 0.00 0.10 0.10 39 1017.9
20260502023004 43 340 1.0 2.0 0.00 0.10 0.10 38 1017.8
20260502022504 44 340 1.0 3.0 0.00 0.10 0.10 35 1017.7
20260502022004 44 321 2.0 3.0 0.00 0.10 0.10 36 1017.7